Location: Ciel?tniki
(50.8917°N, 19.5773°E)
Time: 08:41:08
(UTC+00:00)

Daily predictions for brighter satellites

Satellite Brightness Start Highest point End
(mag) Time Altitude Azimuth Time Altitude Azimuth Time Altitude Azimuth
Resurs 1-3 4.1 16:14:50 10° SE 16:18:47 37° ENE 16:22:46 10° N
NOSS 3-4 (A) 4.3 16:13:29 10° NW 16:19:18 38° NNE 16:26:04 10° E
NOSS 3-4 (C) 4.3 16:13:43 10° NW 16:19:34 38° NNE 16:26:20 10° E
Cosmos 2242 Rocket 3.7 16:17:15 10° S 16:21:28 51° E 16:25:43 10° NNE
Cosmos 1025 Rocket 4.2 16:18:50 10° SE 16:22:09 22° E 16:25:30 10° NE
SPOT 1/Viking Rocket 3.5 16:19:07 10° SSE 16:24:11 68° ENE 16:29:18 10° N
UNK 3.7 16:19:56 10° NNE 16:24:31 88° ESE 16:29:06 10° SSW
Cosmos 2233 Rocket 4.2 16:18:48 10° N 16:24:52 48° ENE 16:30:55 10° SSE
USA 306 1.6 16:24:57 10° WNW 16:28:10 72° NNE 16:30:23 10° ESE
Cosmos 2360 Rocket 4.0 16:24:20 10° NW 16:29:28 37° WSW 16:34:35 10° S
Cosmos 1725 Rocket 4.0 16:23:36 10° N 16:29:50 71° ENE 16:36:06 10° SSE
Cosmos 1833 4.3 16:24:52 10° SSW 16:30:39 89° WNW 16:36:30 10° NNE
SJ-6B 4.2 16:32:52 10° E 16:34:54 15° ENE 16:36:56 10° NNE
ATLAS 2AS CENTAUR R/B 3.5 16:29:08 10° WSW 16:35:51 49° NNW 16:42:27 10° NE
SL-08 R/B 4.5 16:30:32 10° N 16:36:42 65° ENE 16:42:46 10° SSE
CZ-2D R/B 3.6 16:34:00 10° SE 16:37:43 44° ENE 16:41:32 10° N
Cosmos 1674 Rocket 4.0 16:33:54 10° SSE 16:37:57 38° E 16:42:03 10° NNE
Meteor 2-16 Rocket 4.4 16:32:03 10° S 16:38:08 82° E 16:44:15 10° NNE
CZ-2D R/B 3.4 16:36:20 10° S 16:39:21 58° WSW 16:42:24 10° NNW
SL-16 R/B 3.5 16:33:45 10° N 16:39:40 49° WNW 16:45:35 10° SW
Cosmos 2061 Rocket 4.2 16:33:27 10° N 16:39:44 54° ENE 16:45:54 10° SSE
Cosmos 1315 Rocket 2.6 16:37:08 10° N 16:40:53 63° ENE 16:44:39 10° SSE
Cosmos 1867 3.7 16:35:40 10° SSW 16:41:01 63° SE 16:46:26 10° NE
Radarsat Rocket 4.0 16:40:32 10° SE 16:46:16 61° ENE 16:52:27 10° NNW
CZ-4C R/B 2.3 16:42:25 10° S 16:46:18 37° ESE 16:51:08 10° NE
Meteor 2-1 Rocket 4.4 16:42:27 10° N 16:48:08 56° ENE 16:53:55 10° SSE
Lacrosse 5 rocket 0.8 16:48:32 10° SW 16:52:00 81° SE 16:54:54 15° ENE
NOSS 0 Rocket 3.9 16:46:12 10° NNW 16:52:28 70° NE 16:58:41 10° SE
Cosmos 2151 Rocket 3.5 16:48:49 10° N 16:53:20 73° ENE 16:57:49 10° SSE
SAR-Lupe-1 4.2 16:49:54 10° SSE 16:53:27 79° WSW 16:57:03 10° NNW
Meteor 1-21 Rocket 4.5 16:49:39 10° SSW 16:55:34 83° WNW 17:01:32 10° NNE
Cosmos 2082 Rocket 4.4 16:54:07 10° WNW 16:57:45 17° NNW 17:01:24 10° N
Meteor 1-31 Rocket 4.3 16:58:59 14° NE 16:58:59 14° NE 17:00:26 10° NNE
CARTOSAT-1 3.6 16:54:58 10° SSE 16:59:03 53° ENE 17:03:10 10° N
USA 267 3.4 16:54:28 11° ENE 17:00:48 73° NNW 17:07:18 10° WSW
Cosmos 1356 Rocket 3.2 16:58:52 10° NNW 17:02:48 90° E 17:06:45 10° S
Cosmos 1607 3.9 16:57:44 10° SSW 17:03:46 64° SE 17:09:55 10° NE
Cosmos 2297 Rocket 2.9 17:01:26 10° SSE 17:06:19 31° ESE 17:10:46 12° NE
USA 290 2.1 17:03:50 10° SSW 17:07:01 90° WNW 17:10:14 10° NNE
Cosmos 1814 Rocket 4.0 17:04:48 10° SSW 17:10:06 88° ESE 17:15:23 10° NNE
Cosmos 1125 Rocket 3.4 17:08:04 10° NNW 17:13:17 74° ENE 17:18:28 10° SSE
Cosmos 1455 Rocket 3.4 17:09:48 10° N 17:13:52 40° ENE 17:17:56 10° SE
Meteor 1-27 4.4 17:13:42 10° N 17:19:20 51° ENE 17:24:58 10° SSE
Cosmos 2221 Rocket 3.6 17:15:38 10° S 17:20:01 63° E 17:24:30 10° NNE
YAOGAN 1 3.1 17:16:33 10° S 17:20:45 60° WSW 17:24:59 10° NNW
Okean 2 Rocket 3.2 17:18:08 10° NNW 17:22:33 77° W 17:26:55 10° S
NOAA 6 4.0 17:18:30 10° SSE 17:23:39 89° ENE 17:28:51 10° NNW
NOSS 3-3 (C) 3.8 17:19:31 10° SSW 17:24:37 57° SE 17:29:14 17° NE
Spot 4 Rocket 4.3 17:20:49 10° S 17:25:55 73° WSW 17:31:04 10° NNW
Okean 1 Rocket 3.1 17:21:38 10° NNW 17:26:04 81° W 17:30:25 10° S
YAOGAN 3 4.4 17:23:13 10° SSE 17:27:25 84° ENE 17:31:40 10° NNW
COSMOS 2428 3.4 17:23:07 10° NW 17:28:43 57° WSW 17:34:19 10° S
Terra 3.6 17:33:16 16° NE 17:33:16 16° NE 17:35:02 10° NNE
Sich 1 Rocket 3.8 17:27:33 10° NNW 17:32:07 76° W 17:36:39 10° S
Cosmos 1980 3.6 17:26:55 10° NNW 17:32:38 80° ENE 17:38:17 10° SSE
Aureole 3 Rocket 2.8 17:33:11 10° NNW 17:37:39 83° W 17:41:04 10° S
Cosmos 158 Rocket 4.4 17:33:23 10° SW 17:38:11 59° WNW 17:43:01 10° NNE
Cosmos 2237 Rocket 2.1 17:32:32 10° NNW 17:38:15 81° ENE 17:43:56 10° SSE
ATLAS 5 CENTAUR R/B 4.1 17:36:17 10° WNW 17:39:50 23° WSW 17:43:58 10° S
CZ-4B R/B 4.1 17:39:53 41° E 17:40:14 42° ENE 17:43:58 10° N
Resurs 01 Rocket 1.7 17:36:39 10° S 17:41:02 80° WSW 17:45:28 10° NNW
Cosmos 44 Rocket 4.4 17:39:21 10° S 17:42:41 26° SE 17:42:41 26° SE
Cosmos 773 Rocket 4.4 17:38:54 10° S 17:43:44 38° ESE 17:44:57 34° ENE
ARIANE 6 FM1 Upper Stage 3.8 17:40:39 10° NW 17:44:01 25° NNE 17:44:13 25° NNE
COSMO-SKYMED 1 3.0 17:42:24 10° N 17:46:28 59° WNW 17:50:30 10° SSW
Cosmos 2228 3.0 17:44:48 10° N 17:48:53 51° ENE 17:49:16 49° E
Cosmos 2150 Rocket 4.0 17:46:31 10° NNW 17:51:39 59° ENE 17:53:31 37° ESE
Cosmos 2298 Rocket 4.1 17:47:05 10° NNW 17:52:19 57° ENE 17:54:11 37° ESE
NOSS 3-3 (A) 3.7 17:48:13 10° SW 17:53:29 88° NW 17:57:36 22° NE
USA 306 4.3 17:53:50 10° W 17:55:03 15° WSW 17:55:03 15° WSW
Cosmos 836 Rocket 4.5 17:51:50 10° S 17:56:59 58° ESE 17:59:29 30° NE
Cosmos 1782 4.4 17:53:57 10° N 17:55:10 19° N 17:55:10 19° N
Cosmos 1025 Rocket 4.2 17:55:12 10° SSW 17:59:19 44° WNW 18:03:29 10° N
Cosmos 2285 Rocket 4.4 17:53:24 10° NNW 17:59:46 64° WSW 18:06:04 10° S
SL-16 R/B 2.5 17:56:22 10° NNW 18:01:47 43° NE 18:02:27 42° ENE
Cosmos 2227 Rocket 3.0 18:00:00 10° S 18:03:35 32° SE 18:03:35 32° SE
SJ-6B 3.3 18:05:12 15° S 18:07:55 50° W 18:11:18 10° NNW
SPOT 5 2.7 18:08:21 49° SE 18:09:34 70° ENE 18:14:36 10° N
NOSS 3-4 (A) 3.8 18:04:12 10° NW 18:10:51 86° SW 18:15:11 29° SE
NOSS 3-4 (C) 3.8 18:04:28 10° NW 18:11:08 87° SW 18:15:23 30° SE
Cosmos 1816 Rocket 4.4 18:09:49 10° S 18:15:51 63° E 18:21:59 10° NNE
Cosmos 2034 Rocket 3.9 18:09:57 10° N 18:16:04 63° ENE 18:18:04 42° SE
Cosmos 1072 Rocket 4.5 18:11:35 10° N 18:17:53 84° W 18:24:04 10° S
Okean O Rocket 4.0 18:24:52 12° N 18:24:52 12° N 18:25:11 10° N
CZ-4 R/B 3.1 18:28:09 22° NNW 18:28:09 22° NNW 18:29:33 10° NNW
CZ-4B R/B 3.4 18:26:46 50° NE 18:26:46 50° NE 18:31:09 10° N
Cosmos 1634 Rocket 4.4 18:20:15 10° N 18:25:26 43° NE 18:25:26 43° NE
ATLAS 2AS CENTAUR R/B 4.1 18:22:27 10° WNW 18:28:18 29° N 18:31:15 21° NNE
Lacrosse 5 rocket 2.6 18:25:50 10° W 18:28:21 31° NW 18:28:21 31° NW
CZ-4B DEB 4.0 18:29:56 63° SSE 18:30:50 83° ENE 18:36:20 10° NNW
ADEOS 3.9 18:32:00 52° NNE 18:32:00 52° NNE 18:36:11 10° N
Meteor 1-31 Rocket 4.5 18:32:59 25° NNW 18:32:59 25° NNW 18:34:36 10° NNW
CZ-4C R/B 2.7 18:29:57 10° WSW 18:34:20 47° NNW 18:36:09 34° NNE
DMSP 5D-2 F-14 4.5 18:34:37 78° ENE 18:34:39 79° ENE 18:40:05 10° NNW
Feng Yun 1-1 Rocket 4.2 18:36:41 66° SSE 18:37:35 84° ENE 18:43:30 10° NNW
USA 267 3.7 18:41:48 43° NE 18:43:27 53° N 18:49:46 10° WNW
CSL-04 Debris 4.5 18:44:38 39° SSW 18:46:33 64° WSW 18:51:59 10° NNW
ERS-1 Rocket 3.9 18:48:49 39° N 18:48:49 39° N 18:51:57 10° NNW
CSL-04 Rocket 4.1 18:47:26 34° SSW 18:49:32 56° W 18:54:44 10° NNW
Cosmos 2297 Rocket 2.8 18:44:32 10° SW 18:50:05 55° NW 18:52:37 31° N
Cosmos 2344 3.7 18:44:52 10° SSW 18:51:12 51° SSE 18:51:12 51° SSE
Cosmos 1943 4.3 18:47:53 10° NNW 18:51:36 34° N 18:51:36 34° N
DNEPR-1 R/B 4.4 18:49:40 10° NW 18:54:13 60° WSW 18:54:13 60° WSW
Terra 3.7 19:11:53 23° NNW 19:11:53 23° NNW 19:13:41 10° NNW
Cosmos 2237 Rocket 4.5 19:17:38 10° NW 19:21:37 20° W 19:25:35 10° SW
SL-16 R/B 3.7 19:40:37 10° NW 19:44:19 33° WNW 19:44:19 33° WNW
Cosmos 2227 Rocket 4.2 19:43:41 10° SW 19:45:30 20° WSW 19:45:30 20° WSW
ATLAS 2AS CENTAUR R/B 4.3 20:14:56 10° NW 20:18:40 27° NNW 20:18:40 27° NNW
